Simultaneous Nadir Overpasses (SNOs) Predictions

Prediction of SNOs between METOP-A and NOAA-19 Satellite Orbit:

Table of predicted SNOs for the next 14.0 days since TLE Epoch: 1/19/2013
Index Date (METOP-A) Time (METOP-A) Lat,Lon (METOP-A) SZA (METOP-A ) Date (NOAA-19) Time (NOAA-19) Lat,Lon (NOAA-19) SZA (NOAA-19 ) Distance(km) Time Diff (sec)
1 01/19/2013 19:15:00 73.18,-116.32 93.51 01/19/2013 19:16:14 73.19,-116.23 93.50 2.93 74
2 01/19/2013 20:05:53 -72.60, 49.80 87.01 01/19/2013 20:07:00 -72.64, 52.21 87.10 80.09 67
3 01/29/2013 12:22:20 73.33, -12.86 91.31 01/29/2013 12:21:10 73.35, -12.78 91.34 3.02 70
4 01/29/2013 13:13:02 -73.33, 154.47 88.70 01/29/2013 13:12:09 -73.34, 154.48 88.68 1.48 53
5 01/29/2013 14:03:42 73.31, -38.25 91.27 01/29/2013 14:03:14 73.31, -38.21 91.28 1.42 28
6
